Location: Abundant Grace Fellowship
(35.0349°N, 90.0924°W)
Time: 23:02:19
(UTC+00:00)

USA 215 - Pass Details

Date: 18 January 2026
Orbit: 1098 x 1109 km, 123.0° (Epoch: 10 January)

Event Time Altitude Azimuth Distance (km) Brightness Sun altitude
Exits shadow 01:12:33 26° 27° (NNE) 1,999 4.3 -24.0°
Maximum altitude 01:16:12 57° 319° (NW) 1,278 3.7 -24.7°
Drops below altitude 10° 01:22:32 10° 243° (WSW) 2,949 6.4 -26.0°
Sets 01:25:03 0° 239° (WSW) 3,903 7.2 -26.5°
